Location: Bryzozowice
(50.3667°N, 18.9667°E)
Time: 19:54:08
(UTC+00:00)

Cosmos 2219 - Pass Details

Date: 24 January 2020
Orbit: 833 x 860 km, 71.1° (Epoch: 16 February)

Event Time Altitude Azimuth Distance (km) Brightness Sun altitude
Rises 17:30:56 0° 230° (SW) 3,373 7.3 -20.1°
Reaches altitude 10° 17:33:29 10° 237° (WSW) 2,445 6.5 -20.6°
Maximum altitude 17:38:49 43° 309° (NW) 1,159 4.2 -21.4°
Enters shadow 17:43:40 13° 18° (NNE) 2,281 5.2 -22.2°
